Location: Baumgarten
(49.0970°N, 12.7493°E)
Time: 17:37:45
(UTC+00:00)

Cosmos 2056 Rocket - Pass Details

Date: 05 July 2020
Orbit: 741 x 801 km, 74.0° (Epoch: 12 August)

Event Time Altitude Azimuth Distance (km) Brightness Sun altitude
Rises 22:58:19 0° 330° (NNW) 3,305 7.9 -18.2°
Reaches altitude 10° 23:00:53 10° 322° (NW) 2,377 6.8 -18.2°
Maximum altitude 23:05:46 36° 258° (WSW) 1,262 4.5 -18.2°
Enters shadow 23:07:56 26° 215° (SW) 1,548 4.6 -18.2°
